When you browse on this site, cookies collect data to enhance your experience and personalize the content and advertising you see.
Visit our Privacy Policy to learn more. By continuing to use the site, you agree to this use of cookies and data.
  • In Portugal
  • List of Countries
  • For 7 days
  • Water Temperature
  • Satellite Maps
  • Weather Map
  • Weather Widgets
  • user-avatar
    Login

    Hourly Weather Asadabad

    Today, 22 July, Monday

    Time Temperature Precipitation Wind Pressure Humidity
    00:00 +29°C° 0.9 mm 1 mps 656 mmHg 69%
    01:00 +28°C° 0.9 mm 1 mps 655 mmHg 71%
    02:00 +28°C° 0.9 mm 1 mps 655 mmHg 73%
    03:00 +27°C° 0.3 mm 1 mps 655 mmHg 74%
    04:00 +27°C° 0.3 mm 1 mps 655 mmHg 75%
    05:00 +27°C° 0 mm 1 mps 655 mmHg 71%
    06:00 +28°C° 0 mm 1 mps 655 mmHg 66%
    07:00 +29°C° 0 mm 1 mps 656 mmHg 62%
    08:00 +30°C° 0 mm 1 mps 656 mmHg 58%
    09:00 +31°C° 0 mm 2 mps 656 mmHg 56%
    10:00 +32°C° 0 mm 2 mps 656 mmHg 53%
    11:00 +33°C° 0 mm 3 mps 656 mmHg 50%
    12:00 +34°C° 0.1 mm 3 mps 656 mmHg 50%
    13:00 +34°C° 0.1 mm 3 mps 656 mmHg 50%
    14:00 +34°C° 0.1 mm 3 mps 656 mmHg 50%
    15:00 +34°C° 0.2 mm 3 mps 655 mmHg 50%
    16:00 +34°C° 0.2 mm 2 mps 655 mmHg 49%
    17:00 +34°C° 0.2 mm 2 mps 654 mmHg 49%
    18:00 +34°C° 0.1 mm 2 mps 655 mmHg 52%
    19:00 +32°C° 0.1 mm 2 mps 655 mmHg 56%
    20:00 +31°C° 0.1 mm 2 mps 655 mmHg 59%
    21:00 +31°C° 0.1 mm 1 mps 655 mmHg 61%
    22:00 +30°C° 0.1 mm 1 mps 655 mmHg 63%
    23:00 +28°C° 0.1 mm 0 mps 655 mmHg 65%

    Tomorrow, 23 July, Tuesday

    Time Temperature Precipitation Wind Pressure Humidity
    00:00 +27°C° 0 mm 0 mps 655 mmHg 66%
    01:00 +27°C° 0 mm 0 mps 655 mmHg 66%
    02:00 +27°C° 0 mm 0 mps 655 mmHg 67%
    03:00 +26°C° 0 mm 0 mps 655 mmHg 68%
    04:00 +26°C° 0 mm 0 mps 655 mmHg 68%
    05:00 +26°C° 0 mm 0 mps 654 mmHg 69%
    06:00 +27°C° 0 mm 0 mps 655 mmHg 65%
    07:00 +27°C° 0 mm 0 mps 655 mmHg 61%
    08:00 +28°C° 0 mm 0 mps 655 mmHg 57%
    09:00 +31°C° 0 mm 1 mps 655 mmHg 53%
    10:00 +32°C° 0 mm 1 mps 655 mmHg 50%
    11:00 +34°C° 0 mm 2 mps 655 mmHg 47%
    12:00 +35°C° 0 mm 2 mps 655 mmHg 44%
    13:00 +36°C° 0 mm 2 mps 655 mmHg 41%
    14:00 +37°C° 0 mm 3 mps 655 mmHg 39%
    15:00 +37°C° 0 mm 3 mps 654 mmHg 39%
    16:00 +37°C° 0 mm 3 mps 654 mmHg 38%
    17:00 +37°C° 0 mm 3 mps 654 mmHg 38%
    18:00 +36°C° 0.3 mm 2 mps 654 mmHg 43%
    19:00 +35°C° 0.3 mm 2 mps 654 mmHg 48%
    20:00 +32°C° 0.3 mm 1 mps 654 mmHg 52%
    21:00 +32°C° 0.2 mm 1 mps 654 mmHg 55%
    22:00 +31°C° 0.2 mm 1 mps 654 mmHg 58%
    23:00 +31°C° 0.2 mm 1 mps 654 mmHg 60%

    Day after tomorrow, 24 July, Wednesday

    Time Temperature Precipitation Wind Pressure Humidity
    00:00 +30°C° 0 mm 1 mps 654 mmHg 61%
    01:00 +30°C° 0 mm 1 mps 653 mmHg 62%
    02:00 +29°C° 0 mm 1 mps 653 mmHg 62%
    03:00 +29°C° 0 mm 1 mps 653 mmHg 63%
    04:00 +29°C° 0 mm 1 mps 653 mmHg 64%
    05:00 +28°C° 0 mm 1 mps 653 mmHg 65%
    06:00 +29°C° 0 mm 1 mps 653 mmHg 60%
    07:00 +31°C° 0 mm 1 mps 654 mmHg 55%
    08:00 +32°C° 0 mm 1 mps 654 mmHg 51%
    09:00 +33°C° 0 mm 1 mps 654 mmHg 48%
    10:00 +35°C° 0 mm 2 mps 654 mmHg 45%
    11:00 +36°C° 0 mm 2 mps 654 mmHg 42%
    12:00 +37°C° 0 mm 2 mps 654 mmHg 39%
    13:00 +37°C° 0 mm 2 mps 654 mmHg 37%
    14:00 +38°C° 0 mm 3 mps 653 mmHg 35%
    15:00 +38°C° 0 mm 3 mps 653 mmHg 34%
    16:00 +38°C° 0 mm 3 mps 653 mmHg 34%
    17:00 +38°C° 0 mm 3 mps 653 mmHg 34%
    18:00 +37°C° 0.2 mm 2 mps 653 mmHg 38%
    19:00 +36°C° 0.2 mm 2 mps 653 mmHg 42%
    20:00 +34°C° 0.2 mm 1 mps 653 mmHg 46%
    21:00 +33°C° 0.4 mm 1 mps 653 mmHg 49%
    22:00 +32°C° 0.4 mm 1 mps 653 mmHg 52%
    23:00 +32°C° 0.4 mm 1 mps 653 mmHg 55%

    25 July, Thursday

    Time Temperature Precipitation Wind Pressure Humidity
    00:00 +31°C° 0 mm 1 mps 653 mmHg 56%
    01:00 +31°C° 0 mm 1 mps 653 mmHg 58%
    02:00 +30°C° 0 mm 1 mps 653 mmHg 59%
    03:00 +30°C° 0.6 mm 1 mps 653 mmHg 61%
    04:00 +29°C° 0.6 mm 1 mps 652 mmHg 62%
    05:00 +29°C° 0.6 mm 1 mps 652 mmHg 63%
    06:00 +30°C° 0.1 mm 1 mps 653 mmHg 59%
    07:00 +31°C° 0.1 mm 1 mps 653 mmHg 54%
    08:00 +32°C° 0.1 mm 1 mps 654 mmHg 50%
    09:00 +34°C° 0.3 mm 2 mps 654 mmHg 48%
    10:00 +35°C° 0.3 mm 2 mps 654 mmHg 45%
    11:00 +36°C° 0.3 mm 2 mps 654 mmHg 43%
    12:00 +36°C° 0.2 mm 3 mps 654 mmHg 42%
    13:00 +37°C° 0.2 mm 3 mps 653 mmHg 41%
    14:00 +37°C° 0.2 mm 3 mps 653 mmHg 40%
    15:00 +37°C° 0.6 mm 3 mps 653 mmHg 41%
    16:00 +37°C° 0.6 mm 3 mps 652 mmHg 42%
    17:00 +36°C° 0.6 mm 2 mps 652 mmHg 43%
    18:00 +35°C° 0.8 mm 2 mps 652 mmHg 47%
    19:00 +34°C° 0.8 mm 2 mps 652 mmHg 52%
    20:00 +32°C° 0.8 mm 2 mps 652 mmHg 56%
    21:00 +31°C° 0.2 mm 2 mps 652 mmHg 61%
    22:00 +30°C° 0.2 mm 2 mps 653 mmHg 67%
    23:00 +29°C° 0.2 mm 2 mps 653 mmHg 73%

    26 July, Friday

    Time Temperature Precipitation Wind Pressure Humidity
    00:00 +28°C° 0.7 mm 1 mps 653 mmHg 76%
    01:00 +28°C° 0.7 mm 1 mps 652 mmHg 79%
    02:00 +27°C° 0.7 mm 1 mps 652 mmHg 82%
    03:00 +27°C° 1 mm 1 mps 652 mmHg 83%
    04:00 +26°C° 1 mm 1 mps 652 mmHg 85%
    05:00 +26°C° 1 mm 1 mps 652 mmHg 86%
    06:00 +26°C° 0.4 mm 1 mps 652 mmHg 82%
    07:00 +27°C° 0.4 mm 1 mps 653 mmHg 79%
    08:00 +28°C° 0.4 mm 2 mps 653 mmHg 75%
    09:00 +28°C° 0.6 mm 2 mps 653 mmHg 74%
    10:00 +28°C° 0.6 mm 2 mps 653 mmHg 72%
    11:00 +29°C° 0.6 mm 3 mps 653 mmHg 71%
    12:00 +29°C° 0.5 mm 3 mps 653 mmHg 71%
    13:00 +29°C° 0.5 mm 3 mps 653 mmHg 71%
    14:00 +29°C° 0.5 mm 3 mps 653 mmHg 71%
    15:00 +29°C° 0.6 mm 3 mps 652 mmHg 74%
    16:00 +28°C° 0.6 mm 3 mps 652 mmHg 77%
    17:00 +27°C° 0.6 mm 3 mps 652 mmHg 79%
    18:00 +27°C° 1.1 mm 2 mps 652 mmHg 82%
    19:00 +26°C° 1.1 mm 2 mps 653 mmHg 85%
    20:00 +26°C° 1.1 mm 2 mps 653 mmHg 88%
    21:00 +25°C° 1.3 mm 2 mps 653 mmHg 89%
    22:00 +25°C° 1.3 mm 2 mps 653 mmHg 90%
    23:00 +25°C° 1.3 mm 2 mps 654 mmHg 90%

    27 July, Saturday

    Time Temperature Precipitation Wind Pressure Humidity
    00:00 +25°C° 0.9 mm 1 mps 653 mmHg 90%
    01:00 +24°C° 0.9 mm 1 mps 653 mmHg 90%
    02:00 +24°C° 0.9 mm 1 mps 653 mmHg 90%
    03:00 +24°C° 0.8 mm 1 mps 653 mmHg 90%
    04:00 +24°C° 0.8 mm 1 mps 653 mmHg 89%
    05:00 +22°C° 0.8 mm 0 mps 653 mmHg 89%
    06:00 +25°C° 0.3 mm 1 mps 653 mmHg 86%
    07:00 +25°C° 0.3 mm 1 mps 654 mmHg 82%
    08:00 +26°C° 0.3 mm 1 mps 654 mmHg 79%
    09:00 +27°C° 0.4 mm 1 mps 654 mmHg 75%
    10:00 +28°C° 0.4 mm 2 mps 654 mmHg 71%
    11:00 +29°C° 0.4 mm 2 mps 654 mmHg 67%
    12:00 +29°C° 0.2 mm 2 mps 654 mmHg 65%
    13:00 +30°C° 0.2 mm 2 mps 654 mmHg 63%
    14:00 +30°C° 0.2 mm 2 mps 654 mmHg 62%
    15:00 +30°C° 0.1 mm 2 mps 653 mmHg 61%
    16:00 +30°C° 0.1 mm 2 mps 653 mmHg 60%
    17:00 +31°C° 0.1 mm 2 mps 653 mmHg 60%
    18:00 +30°C° 0 mm 2 mps 653 mmHg 63%
    19:00 +29°C° 0 mm 2 mps 653 mmHg 66%
    20:00 +29°C° 0 mm 2 mps 653 mmHg 70%
    21:00 +28°C° 0.1 mm 1 mps 653 mmHg 73%
    22:00 +28°C° 0.1 mm 1 mps 654 mmHg 76%
    23:00 +27°C° 0.1 mm 1 mps 654 mmHg 78%
    Show more